30-03-2023, 00:00:04,    226,    2.2,    9.5,   0.00,   0.00,  999.3,   99.0, -999.0
30-03-2023, 00:00:14,    216,    2.9,    9.6,   0.00,   0.00,  999.3,   99.0, -999.0
30-03-2023, 00:00:24,    196,    3.8,    9.5,   0.00,   0.00,  999.3,   99.0, -999.0
30-03-2023, 00:00:34,    214,    2.4,    9.5,   0.00,   0.00,  999.3,   99.0, -999.0
30-03-2023, 00:00:44,    252,    0.5,    9.5,   0.00,   0.00,  999.3,   98.8, -999.0
30-03-2023, 00:00:54,    267,    0.9,    9.5,   0.00,   0.00,  999.3,   99.0, -999.0
30-03-2023, 00:01:04,    202,    1.5,    9.5,   0.00,   0.00,  999.3,   99.0, -999.0
30-03-2023, 00:01:14,    222,    2.1,    9.6,   0.00,   0.00,  999.3,   99.0, -999.0
30-03-2023, 00:01:24,    176,    0.7,    9.5,   0.00,   0.00,  999.2,   99.0, -999.0
30-03-2023, 00:01:34,    180,    0.0,    9.4,   0.00,   0.00,  999.1,   98.7, -999.0
30-03-2023, 00:01:44,    162,    0.0,    9.5,   0.00,   0.00,  999.1,   98.6, -999.0
30-03-2023, 00:01:54,    248,    1.5,    9.5,   0.00,   0.00,  999.2,   98.8, -999.0
30-03-2023, 00:02:04,    174,    2.2,    9.5,   0.00,   0.00,  999.3,   99.0, -999.0
30-03-2023, 00:02:14,    203,    3.9,    9.5,   0.00,   0.00,  999.3,   99.0, -999.0
30-03-2023, 00:02:24,    182,    1.4,    9.5,   0.00,   0.00,  999.3,   98.9, -999.0
30-03-2023, 00:02:34,    199,    2.3,    9.5,   0.00,   0.00,  999.3,   98.9, -999.0
30-03-2023, 00:02:44,    209,    1.8,    9.5,   0.00,   0.00,  999.3,   98.8, -999.0
30-03-2023, 00:02:54,    232,    2.1,    9.5,   0.00,   0.00,  999.3,   98.7, -999.0
30-03-2023, 00:03:04,    205,    4.2,    9.5,   0.00,   0.00,  999.3,   98.7, -999.0
30-03-2023, 00:03:14,    210,    4.3,    9.5,   0.00,   0.00,  999.2,   99.0, -999.0
30-03-2023, 00:03:24,    204,    3.0,    9.5,   0.00,   0.00,  999.3,   98.6, -999.0
30-03-2023, 00:03:34,    263,    2.4,    9.5,   0.00,   0.00,  999.3,   98.7, -999.0
30-03-2023, 00:03:44,    151,    2.8,    9.6,   0.00,   0.00,  999.3,   98.5, -999.0
30-03-2023, 00:03:54,    182,    3.2,    9.5,   0.00,   0.00,  999.3,   98.3, -999.0
30-03-2023, 00:04:04,    184,    4.6,    9.5,   0.00,   0.00,  999.3,   98.0, -999.0
30-03-2023, 00:04:14,    262,    1.9,    9.5,   0.00,   0.00,  999.3,   98.0, -999.0
30-03-2023, 00:04:23,    221,    1.6,    9.5,   0.00,   0.00,  999.2,   98.1, -999.0
30-03-2023, 00:04:34,    202,    1.4,    9.5,   0.00,   0.00,  999.2,   98.1, -999.0
30-03-2023, 00:04:44,    239,    2.3,    9.6,   0.00,   0.00,  999.2,   97.9, -999.0
30-03-2023, 00:04:54,    220,    2.2,    9.4,   0.00,   0.00,  999.3,   97.9, -999.0
30-03-2023, 00:05:03,    236,    4.6,    9.5,   0.00,   0.00,  999.2,   98.0, -999.0
30-03-2023, 00:05:14,    196,    3.1,    9.5,   0.00,   0.00,  999.3,   97.8, -999.0
30-03-2023, 00:05:24,    223,    2.4,    9.6,   0.00,   0.00,  999.3,   98.0, -999.0
30-03-2023, 00:05:33,    234,    2.6,    9.5,   0.00,   0.00,  999.2,   98.1, -999.0
30-03-2023, 00:05:43,    162,    3.2,    9.5,   0.00,   0.00,  999.3,   97.8, -999.0
30-03-2023, 00:05:54,    225,    1.0,    9.4,   0.00,   0.00,  999.2,   97.5, -999.0
30-03-2023, 00:06:04,    222,    2.1,    9.4,   0.00,   0.00,  999.2,   97.6, -999.0
30-03-2023, 00:06:13,    198,    1.2,    9.5,   0.00,   0.00,  999.2,   97.5, -999.0
30-03-2023, 00:06:23,    244,    0.6,    9.5,   0.00,   0.00,  999.2,   97.9, -999.0
30-03-2023, 00:06:34,    212,    2.5,    9.5,   0.00,   0.00,  999.2,   97.7, -999.0
30-03-2023, 00:06:43,    184,    0.5,    9.5,   0.00,   0.00,  999.2,   97.6, -999.0
30-03-2023, 00:06:53,    185,    0.0,    9.4,   0.00,   0.00,  999.1,   97.6, -999.0
30-03-2023, 00:07:03,    194,    2.7,    9.4,   0.00,   0.00,  999.2,   97.8, -999.0
30-03-2023, 00:07:13,    193,    1.5,    9.5,   0.00,   0.00,  999.2,   97.9, -999.0
30-03-2023, 00:07:23,    218,    0.5,    9.5,   0.00,   0.00,  999.2,   97.7, -999.0
30-03-2023, 00:07:33,    184,    1.6,    9.4,   0.00,   0.00,  999.2,   97.4, -999.0
30-03-2023, 00:07:43,    177,    1.2,    9.4,   0.00,   0.00,  999.3,   97.9, -999.0
30-03-2023, 00:07:53,    206,    1.0,    9.2,   0.00,   0.00,  999.2,   98.0, -999.0
30-03-2023, 00:08:03,    197,    6.4,    9.5,   0.00,   0.00,  999.3,   98.1, -999.0
30-03-2023, 00:08:13,    188,    4.6,    9.5,   0.00,   0.00,  999.2,   97.6, -999.0
30-03-2023, 00:08:23,    184,    2.8,    9.5,   0.00,   0.00,  999.2,   97.3, -999.0
30-03-2023, 00:08:33,    155,    1.2,    9.5,   0.00,   0.00,  999.2,   97.3, -999.0
30-03-2023, 00:08:43,    155,    0.7,    9.4,   0.00,   0.00,  999.2,   97.3, -999.0
30-03-2023, 00:08:53,    227,    1.2,    9.5,   0.00,   0.00,  999.2,   97.8, -999.0
30-03-2023, 00:09:03,    192,    4.1,    9.5,   0.00,   0.00,  999.2,   97.6, -999.0
30-03-2023, 00:09:13,    239,    1.3,    9.4,   0.00,   0.00,  999.3,   97.3, -999.0
30-03-2023, 00:09:23,    206,    1.5,    9.4,   0.00,   0.00,  999.2,   97.5, -999.0
30-03-2023, 00:09:33,    190,    3.0,    9.5,   0.00,   0.00,  999.2,   97.5, -999.0
30-03-2023, 00:09:43,    213,    1.6,    9.5,   0.00,   0.00,  999.2,   97.7, -999.0
30-03-2023, 00:09:53,    232,    0.9,    9.5,   0.00,   0.00,  999.2,   97.7, -999.0
30-03-2023, 00:10:03,    256,    0.7,    9.4,   0.00,   0.00,  999.2,   97.4, -999.0
30-03-2023, 00:10:13,    213,    1.3,    9.3,   0.00,   0.00,  999.1,   97.5, -999.0
30-03-2023, 00:10:23,    205,    2.0,    9.5,   0.00,   0.00,  999.2,   97.8, -999.0
30-03-2023, 00:10:33,    222,    1.2,    9.4,   0.00,   0.00,  999.3,   97.9, -999.0
30-03-2023, 00:10:43,    213,    3.0,    9.3,   0.00,   0.00,  999.2,   97.8, -999.0
30-03-2023, 00:10:53,    188,    1.6,    9.4,   0.00,   0.00,  999.2,   97.7, -999.0
30-03-2023, 00:11:03,    120,    0.1,    9.3,   0.00,   0.00,  999.1,   97.5, -999.0
30-03-2023, 00:11:13,    121,    0.2,    9.3,   0.00,   0.00,  999.1,   97.8, -999.0
30-03-2023, 00:11:23,    121,    0.0,    9.3,   0.00,   0.00,  999.1,   97.5, -999.0
30-03-2023, 00:11:33,    121,    0.0,    9.3,   0.00,   0.00,  999.1,   97.9, -999.0
30-03-2023, 00:11:43,    272,    0.5,    9.3,   0.00,   0.00,  999.2,   98.2, -999.0
30-03-2023, 00:11:53,    225,    0.2,    9.3,   0.00,   0.00,  999.2,   98.0, -999.0
30-03-2023, 00:12:03,    261,    1.0,    9.4,   0.00,   0.00,  999.2,   98.5, -999.0
30-03-2023, 00:12:13,    196,    3.2,    9.4,   0.00,   0.00,  999.2,   98.7, -999.0
30-03-2023, 00:12:23,    195,    5.2,    9.4,   0.00,   0.00,  999.2,   98.6, -999.0
30-03-2023, 00:12:33,    220,    4.9,    9.4,   0.00,   0.00,  999.2,   98.3, -999.0
30-03-2023, 00:12:43,    227,    6.8,    9.4,   0.00,   0.00,  999.2,   97.6, -999.0
30-03-2023, 00:12:53,    201,    5.2,    9.4,   0.00,   0.00,  999.2,   97.8, -999.0
30-03-2023, 00:13:03,    176,    4.9,    9.4,   0.00,   0.00,  999.3,   97.6, -999.0
30-03-2023, 00:13:13,    174,    4.4,    9.5,   0.00,   0.00,  999.3,   97.7, -999.0
30-03-2023, 00:13:23,    222,    2.9,    9.4,   0.00,   0.00,  999.3,   97.7, -999.0
30-03-2023, 00:13:33,    221,    0.6,    9.3,   0.00,   0.00,  999.2,   97.5, -999.0
30-03-2023, 00:13:43,    255,    2.5,    9.4,   0.00,   0.00,  999.2,   97.8, -999.0
30-03-2023, 00:13:53,    204,    5.3,    9.4,   0.00,   0.00,  999.2,   98.0, -999.0
30-03-2023, 00:14:02,    210,    4.4,    9.4,   0.00,   0.00,  999.2,   97.5, -999.0
30-03-2023, 00:14:13,    189,    3.8,    9.4,   0.00,   0.00,  999.3,   97.5, -999.0
30-03-2023, 00:14:23,    139,    2.9,    9.4,   0.00,   0.00,  999.3,   97.5, -999.0
30-03-2023, 00:14:33,    223,    3.6,    9.4,   0.00,   0.00,  999.2,   97.5, -999.0
30-03-2023, 00:14:42,    256,    3.5,    9.4,   0.00,   0.00,  999.2,   97.8, -999.0
30-03-2023, 00:14:53,    213,    0.4,    9.4,   0.00,   0.00,  999.2,   97.5, -999.0
30-03-2023, 00:15:03,    180,    3.8,    9.5,   0.00,   0.00,  999.2,   97.6, -999.0
30-03-2023, 00:15:12,    196,    1.0,    9.3,   0.00,   0.00,  999.2,   97.4, -999.0
30-03-2023, 00:15:23,    217,    3.1,    9.4,   0.00,   0.00,  999.2,   97.4, -999.0
30-03-2023, 00:15:33,    211,    1.9,    9.4,   0.00,   0.00,  999.3,   97.4, -999.0
30-03-2023, 00:15:42,    206,    3.1,    9.4,   0.00,   0.00,  999.3,   97.4, -999.0
30-03-2023, 00:15:52,    206,    1.6,    9.4,   0.00,   0.00,  999.3,   97.4, -999.0
30-03-2023, 00:16:03,    207,    3.4,    9.4,   0.00,   0.00,  999.3,   97.4, -999.0
30-03-2023, 00:16:13,    239,    1.6,    9.4,   0.00,   0.00,  999.2,   97.6, -999.0
30-03-2023, 00:16:22,    202,    3.1,    9.3,   0.00,   0.00,  999.2,   97.1, -999.0
30-03-2023, 00:16:32,    220,    3.6,    9.4,   0.00,   0.00,  999.3,   97.5, -999.0
30-03-2023, 00:16:43,    179,    1.5,    9.4,   0.00,   0.00,  999.3,   97.3, -999.0
30-03-2023, 00:16:52,    210,    1.5,    9.3,   0.00,   0.00,  999.3,   97.2, -999.0
30-03-2023, 00:17:02,    215,    0.0,    9.3,   0.00,   0.00,  999.1,   97.0, -999.0
30-03-2023, 00:17:12,    194,    1.4,    9.4,   0.00,   0.00,  999.3,   97.7, -999.0
30-03-2023, 00:17:23,    174,    2.4,    9.4,   0.00,   0.00,  999.2,   97.6, -999.0
30-03-2023, 00:17:32,    158,    4.1,    9.4,   0.00,   0.00,  999.2,   97.1, -999.0
30-03-2023, 00:17:42,    174,    0.1,    9.4,   0.00,   0.00,  999.2,   96.9, -999.0
30-03-2023, 00:17:52,    213,    1.3,    9.4,   0.00,   0.00,  999.3,   97.0, -999.0
30-03-2023, 00:18:02,    198,    1.7,    9.5,   0.00,   0.00,  999.3,   96.9, -999.0
30-03-2023, 00:18:12,    228,    1.9,    9.4,   0.00,   0.00,  999.3,   97.0, -999.0
30-03-2023, 00:18:22,    172,    1.1,    9.4,   0.00,   0.00,  999.3,   97.1, -999.0
30-03-2023, 00:18:32,    175,    0.4,    9.4,   0.00,   0.00,  999.2,   96.8, -999.0
30-03-2023, 00:18:42,    171,    1.6,    9.4,   0.00,   0.00,  999.2,   97.1, -999.0
30-03-2023, 00:18:52,    210,    0.8,    9.4,   0.00,   0.00,  999.2,   97.0, -999.0
30-03-2023, 00:19:02,    186,    2.6,    9.4,   0.00,   0.00,  999.2,   97.1, -999.0
30-03-2023, 00:19:12,    234,    0.9,    9.3,   0.00,   0.00,  999.3,   97.3, -999.0
30-03-2023, 00:19:22,    243,    0.3,    9.3,   0.00,   0.00,  999.2,   97.0, -999.0
30-03-2023, 00:19:32,    207,    0.0,    9.3,   0.00,   0.00,  999.1,   96.9, -999.0
30-03-2023, 00:19:42,    201,    2.0,    9.4,   0.00,   0.00,  999.2,   97.4, -999.0
30-03-2023, 00:19:52,    216,    5.3,    9.4,   0.00,   0.00,  999.3,   97.3, -999.0
30-03-2023, 00:20:02,    184,    2.8,    9.3,   0.00,   0.00,  999.3,   96.7, -999.0
30-03-2023, 00:20:12,    196,    3.7,    9.4,   0.00,   0.00,  999.3,   96.7, -999.0
30-03-2023, 00:20:22,    138,    2.7,    9.4,   0.00,   0.00,  999.3,   97.2, -999.0
30-03-2023, 00:20:32,    208,    1.3,    9.4,   0.00,   0.00,  999.2,   96.8, -999.0
30-03-2023, 00:20:42,    179,    0.7,    9.3,   0.00,   0.00,  999.2,   97.1, -999.0
30-03-2023, 00:20:52,    240,    2.1,    9.5,   0.00,   0.00,  999.2,   97.2, -999.0
30-03-2023, 00:21:02,    289,    0.8,    9.4,   0.00,   0.00,  999.2,   97.0, -999.0
30-03-2023, 00:21:12,    209,    1.1,    9.4,   0.00,   0.00,  999.2,   96.9, -999.0
30-03-2023, 00:21:22,    213,    1.1,    9.4,   0.00,   0.00,  999.2,   96.9, -999.0
30-03-2023, 00:21:32,    190,    2.9,    9.4,   0.00,   0.00,  999.3,   97.1, -999.0
30-03-2023, 00:21:42,    185,    0.8,    9.4,   0.00,   0.00,  999.3,   97.1, -999.0
30-03-2023, 00:21:52,    193,    1.1,    9.4,   0.00,   0.00,  999.2,   96.8, -999.0
30-03-2023, 00:22:02,    167,    2.7,    9.4,   0.00,   0.00,  999.3,   96.9, -999.0
30-03-2023, 00:22:12,    219,    1.0,    9.4,   0.00,   0.00,  999.2,   97.0, -999.0
30-03-2023, 00:22:22,    210,    2.0,    9.4,   0.00,   0.00,  999.2,   96.6, -999.0
30-03-2023, 00:22:32,    166,    1.4,    9.4,   0.00,   0.00,  999.2,   97.0, -999.0
30-03-2023, 00:22:42,    182,    2.0,    9.4,   0.00,   0.00,  999.2,   97.0, -999.0
30-03-2023, 00:22:52,    204,    2.1,    9.5,   0.00,   0.00,  999.3,   97.1, -999.0
30-03-2023, 00:23:02,    239,    1.2,    9.3,   0.00,   0.00,  999.2,   97.1, -999.0
30-03-2023, 00:23:12,    226,    2.4,    9.4,   0.00,   0.00,  999.3,   97.4, -999.0
30-03-2023, 00:23:22,    226,    0.6,    9.4,   0.00,   0.00,  999.2,   97.3, -999.0
30-03-2023, 00:23:32,    203,    1.0,    9.4,   0.00,   0.00,  999.3,   97.2, -999.0
30-03-2023, 00:23:42,    201,    1.5,    9.4,   0.00,   0.00,  999.2,   97.4, -999.0
30-03-2023, 00:23:52,    256,    2.9,    9.3,   0.00,   0.00,  999.2,   97.4, -999.0
30-03-2023, 00:24:02,    165,    1.3,    9.4,   0.00,   0.00,  999.3,   97.2, -999.0
30-03-2023, 00:24:11,    143,    2.5,    9.4,   0.00,   0.00,  999.2,   97.4, -999.0
30-03-2023, 00:24:22,    203,    1.2,    9.3,   0.00,   0.00,  999.2,   97.1, -999.0
30-03-2023, 00:24:32,    218,    3.9,    9.6,   0.00,   0.00,  999.3,   97.2, -999.0
30-03-2023, 00:24:41,    225,    4.1,    9.3,   0.00,   0.00,  999.3,   97.2, -999.0
30-03-2023, 00:24:51,    151,    3.2,    9.4,   0.00,   0.00,  999.3,   97.0, -999.0
30-03-2023, 00:25:02,    190,    1.6,    9.4,   0.00,   0.00,  999.3,   96.8, -999.0
30-03-2023, 00:25:12,    179,    0.4,    9.4,   0.00,   0.00,  999.2,   97.2, -999.0
30-03-2023, 00:25:21,    246,    2.0,    9.4,   0.00,   0.00,  999.3,   97.0, -999.0
30-03-2023, 00:25:32,    219,    1.7,    9.4,   0.00,   0.00,  999.3,   96.9, -999.0
30-03-2023, 00:25:42,    222,    2.0,    9.3,   0.00,   0.00,  999.2,   97.0, -999.0
30-03-2023, 00:25:51,    189,    3.5,    9.4,   0.00,   0.00,  999.3,   97.4, -999.0
30-03-2023, 00:26:01,    309,    0.4,    9.4,   0.00,   0.00,  999.2,   96.5, -999.0
30-03-2023, 00:26:12,    192,    2.0,    9.4,   0.00,   0.00,  999.3,   97.1, -999.0
30-03-2023, 00:26:21,    207,    1.9,    9.4,   0.00,   0.00,  999.2,   97.5, -999.0
30-03-2023, 00:26:31,    169,    6.0,    9.5,   0.00,   0.00,  999.3,   97.0, -999.0
30-03-2023, 00:26:41,    217,    4.7,    9.5,   0.00,   0.00,  999.3,   96.8, -999.0
30-03-2023, 00:26:52,    200,    3.9,    9.4,   0.00,   0.00,  999.3,   96.8, -999.0
30-03-2023, 00:27:01,    199,    2.4,    9.4,   0.00,   0.00,  999.3,   96.9, -999.0
30-03-2023, 00:27:11,    229,    3.8,    9.4,   0.00,   0.00,  999.3,   96.6, -999.0
30-03-2023, 00:27:21,    201,    6.4,    9.4,   0.00,   0.00,  999.3,   96.9, -999.0
30-03-2023, 00:27:31,    212,    3.7,    9.4,   0.00,   0.00,  999.3,   96.4, -999.0
30-03-2023, 00:27:41,    217,    2.3,    9.4,   0.00,   0.00,  999.2,   96.5, -999.0
30-03-2023, 00:27:51,    221,    3.1,    9.4,   0.00,   0.00,  999.3,   96.7, -999.0
30-03-2023, 00:28:01,    192,    1.7,    9.4,   0.00,   0.00,  999.3,   96.4, -999.0
30-03-2023, 00:28:11,    191,    0.0,    9.4,   0.00,   0.00,  999.1,   96.3, -999.0
30-03-2023, 00:28:21,    218,    2.0,    9.4,   0.00,   0.00,  999.2,   96.6, -999.0
30-03-2023, 00:28:31,    203,    6.2,    9.4,   0.00,   0.00,  999.3,   96.6, -999.0
30-03-2023, 00:28:41,    215,    4.7,    9.4,   0.00,   0.00,  999.3,   96.5, -999.0
30-03-2023, 00:28:51,    168,    4.3,    9.5,   0.00,   0.00,  999.2,   96.2, -999.0
30-03-2023, 00:29:01,    171,    0.6,    9.4,   0.00,   0.00,  999.2,   96.4, -999.0
30-03-2023, 00:29:11,    203,    0.6,    9.4,   0.00,   0.00,  999.2,   96.6, -999.0
30-03-2023, 00:29:21,    235,    2.4,    9.5,   0.00,   0.00,  999.3,   96.7, -999.0
30-03-2023, 00:29:31,    248,    3.8,    9.5,   0.00,   0.00,  999.2,   96.6, -999.0
30-03-2023, 00:29:41,    180,    2.3,    9.5,   0.00,   0.00,  999.2,   96.9, -999.0
30-03-2023, 00:29:51,    177,    1.6,    9.4,   0.00,   0.00,  999.3,   97.0, -999.0
30-03-2023, 00:30:01,    213,    0.7,    9.4,   0.00,   0.00,  999.2,   97.5, -999.0
30-03-2023, 00:30:11,    197,    2.6,    9.4,   0.00,   0.00,  999.2,   97.5, -999.0
30-03-2023, 00:30:21,    200,    3.9,    9.3,   0.00,   0.00,  999.2,   97.5, -999.0
30-03-2023, 00:30:31,    203,    5.2,    9.4,   0.00,   0.00,  999.3,   97.7, -999.0
30-03-2023, 00:30:41,    219,    1.9,    9.4,   0.00,   0.00,  999.2,   97.7, -999.0
30-03-2023, 00:30:51,    159,    2.2,    9.4,   0.00,   0.00,  999.2,   98.2, -999.0
30-03-2023, 00:31:01,    174,    0.3,    9.3,   0.00,   0.00,  999.2,   98.3, -999.0
30-03-2023, 00:31:11,    232,    2.6,    9.3,   0.00,   0.00,  999.2,   98.3, -999.0
30-03-2023, 00:31:21,    159,    3.1,    9.3,   0.00,   0.00,  999.2,   98.3, -999.0
30-03-2023, 00:31:31,    178,    1.3,    9.4,   0.00,   0.00,  999.2,   98.4, -999.0
30-03-2023, 00:31:41,    213,    3.1,    9.4,   0.00,   0.00,  999.3,   98.9, -999.0
30-03-2023, 00:31:51,    219,    3.0,    9.3,   0.00,   0.00,  999.2,   98.9, -999.0
30-03-2023, 00:32:01,    212,    3.0,    9.3,   0.00,   0.00,  999.3,   99.0, -999.0
30-03-2023, 00:32:11,    221,    1.9,    9.2,   0.00,   0.00,  999.2,   99.0, -999.0
30-03-2023, 00:32:21,    196,    3.5,    9.3,   0.00,   0.00,  999.2,   99.0, -999.0
30-03-2023, 00:32:31,    207,    4.0,    9.3,   0.00,   0.00,  999.3,   98.9, -999.0
30-03-2023, 00:32:41,    165,    2.3,    9.3,   0.00,   0.00,  999.2,   99.0, -999.0
30-03-2023, 00:32:51,    214,    1.1,    9.3,   0.00,   0.00,  999.2,   99.0, -999.0
30-03-2023, 00:33:01,    211,    4.1,    9.3,   0.00,   0.00,  999.2,   99.0, -999.0
30-03-2023, 00:33:11,    197,    2.9,    9.3,   0.00,   0.00,  999.2,   99.0, -999.0
30-03-2023, 00:33:21,    183,    0.9,    9.3,   0.00,   0.00,  999.2,   98.9, -999.0
30-03-2023, 00:33:31,    154,    0.3,    9.3,   0.00,   0.00,  999.1,   98.8, -999.0
30-03-2023, 00:33:40,    246,    0.1,    9.3,   0.00,   0.00,  999.1,   98.7, -999.0
30-03-2023, 00:33:51,    244,    0.0,    9.2,   0.00,   0.00,  999.1,   98.6, -999.0
30-03-2023, 00:34:01,    195,    0.7,    9.2,   0.00,   0.00,  999.2,   98.9, -999.0
30-03-2023, 00:34:11,    228,    1.0,    9.3,   0.00,   0.00,  999.2,   98.9, -999.0
30-03-2023, 00:34:20,    231,    1.7,    9.3,   0.00,   0.00,  999.2,   99.0, -999.0
30-03-2023, 00:34:31,    231,    0.1,    9.2,   0.00,   0.00,  999.1,   98.7, -999.0
30-03-2023, 00:34:41,    206,    0.1,    9.2,   0.00,   0.00,  999.1,   98.7, -999.0
30-03-2023, 00:34:50,    209,    1.1,    9.2,   0.00,   0.00,  999.2,   99.0, -999.0
30-03-2023, 00:35:01,    240,    0.8,    9.1,   0.00,   0.00,  999.2,   98.9, -999.0
30-03-2023, 00:35:11,    231,    1.7,    9.3,   0.00,   0.00,  999.2,   99.0, -999.0
30-03-2023, 00:35:21,    225,    4.0,    9.2,   0.00,   0.00,  999.2,   99.0, -999.0
30-03-2023, 00:35:30,    194,    2.1,    9.3,   0.00,   0.00,  999.2,   99.0, -999.0
30-03-2023, 00:35:41,    204,    1.0,    9.2,   0.00,   0.00,  999.2,   98.9, -999.0
30-03-2023, 00:35:51,    209,    1.3,    9.2,   0.00,   0.00,  999.2,   98.9, -999.0
30-03-2023, 00:36:00,    228,    2.1,    9.2,   0.00,   0.00,  999.2,   99.0, -999.0
30-03-2023, 00:36:12,    210,    1.5,    9.2,   0.00,   0.00,  999.1,   99.0, -999.0
30-03-2023, 00:36:21,    208,    1.7,    9.2,   0.00,   0.00,  999.1,   99.0, -999.0
30-03-2023, 00:36:30,    169,    1.2,    9.2,   0.00,   0.00,  999.1,   99.0, -999.0
30-03-2023, 00:36:40,    169,    0.0,    9.1,   0.00,   0.00,  999.0,   98.7, -999.0
30-03-2023, 00:36:50,    169,    0.0,    9.1,   0.00,   0.00,  999.0,   98.8, -999.0
30-03-2023, 00:37:01,    153,    1.0,    9.1,   0.00,   0.00,  999.0,   98.7, -999.0
30-03-2023, 00:37:10,    204,    2.6,    9.2,   0.00,   0.00,  999.1,   99.0, -999.0
30-03-2023, 00:37:20,    155,    2.6,    9.2,   0.00,   0.00,  999.1,   99.0, -999.0
30-03-2023, 00:37:30,    220,    2.0,    9.2,   0.00,   0.00,  999.1,   99.0, -999.0
30-03-2023, 00:37:40,    197,    0.6,    9.1,   0.00,   0.00,  999.1,   99.0, -999.0
30-03-2023, 00:37:50,    203,    1.5,    9.1,   0.00,   0.00,  999.1,   99.0, -999.0
30-03-2023, 00:38:00,    211,    2.0,    9.0,   0.00,   0.00,  999.1,   99.0, -999.0
30-03-2023, 00:38:10,    243,    1.5,    9.2,   0.00,   0.00,  999.1,   98.9, -999.0
30-03-2023, 00:38:20,    204,    0.8,    9.1,   0.00,   0.00,  999.0,   98.8, -999.0
30-03-2023, 00:38:30,    219,    4.4,    9.2,   0.00,   0.00,  999.2,   99.0, -999.0
30-03-2023, 00:38:40,    174,    2.1,    9.2,   0.00,   0.00,  999.2,   99.0, -999.0
30-03-2023, 00:38:50,    199,    2.8,    9.2,   0.00,   0.00,  999.1,   99.0, -999.0
30-03-2023, 00:39:00,    202,    3.4,    9.2,   0.00,   0.00,  999.1,   99.1, -999.0
30-03-2023, 00:39:10,    206,    2.7,    9.2,   0.00,   0.00,  999.1,   99.0, -999.0
30-03-2023, 00:39:20,    201,    1.6,    9.2,   0.00,   0.00,  999.0,   98.9, -999.0
30-03-2023, 00:39:30,    195,    0.1,    9.1,   0.00,   0.00,  999.0,   98.7, -999.0
30-03-2023, 00:39:40,    195,    0.8,    9.2,   0.00,   0.00,  999.0,   98.8, -999.0
30-03-2023, 00:39:50,    209,    2.7,    9.2,   0.00,   0.00,  999.1,   99.1, -999.0
30-03-2023, 00:40:00,    194,    3.5,    9.2,   0.00,   0.00,  999.1,   99.0, -999.0
30-03-2023, 00:40:10,    199,    0.8,    9.2,   0.00,   0.00,  999.1,   98.8, -999.0
30-03-2023, 00:40:20,    198,    0.0,    9.1,   0.00,   0.00,  999.0,   98.6, -999.0
30-03-2023, 00:40:30,    207,    1.3,    9.1,   0.00,   0.00,  999.0,   98.8, -999.0
30-03-2023, 00:40:40,    209,    1.1,    9.2,   0.00,   0.00,  999.1,   99.0, -999.0
30-03-2023, 00:40:50,    208,    1.5,    9.3,   0.00,   0.00,  999.1,   98.9, -999.0
30-03-2023, 00:41:00,    205,    2.6,    9.2,   0.00,   0.00,  999.1,   99.0, -999.0
30-03-2023, 00:41:10,    205,    0.7,    9.2,   0.00,   0.00,  999.0,   98.9, -999.0
30-03-2023, 00:41:20,    205,    0.2,    9.0,   0.00,   0.00,  999.0,   98.9, -999.0
30-03-2023, 00:41:30,    197,    0.0,    9.1,   0.00,   0.00,  998.9,   98.7, -999.0
30-03-2023, 00:41:40,    236,    0.6,    9.1,   0.00,   0.00,  999.0,   98.8, -999.0
30-03-2023, 00:41:50,    223,    1.3,    9.1,   0.00,   0.00,  999.1,   99.0, -999.0
30-03-2023, 00:42:00,    243,    1.0,    9.1,   0.00,   0.00,  999.0,   98.9, -999.0
30-03-2023, 00:42:10,    214,    1.5,    9.1,   0.00,   0.00,  999.0,   99.0, -999.0
30-03-2023, 00:42:20,    221,    0.7,    9.1,   0.00,   0.00,  999.0,   98.8, -999.0
30-03-2023, 00:42:30,    221,    2.8,    9.2,   0.00,   0.00,  999.0,   99.0, -999.0
30-03-2023, 00:42:40,    204,    0.8,    9.2,   0.00,   0.00,  999.0,   98.9, -999.0
30-03-2023, 00:42:50,    206,    1.1,    9.1,   0.00,   0.00,  999.0,   98.9, -999.0
30-03-2023, 00:43:00,    152,    1.1,    9.2,   0.00,   0.00,  999.0,   99.1, -999.0
30-03-2023, 00:43:10,    167,    1.0,    9.1,   0.00,   0.00,  999.0,   99.0, -999.0
30-03-2023, 00:43:20,    168,    0.0,    9.1,   0.00,   0.00,  998.9,   98.7, -999.0
30-03-2023, 00:43:30,    220,    1.0,    9.1,   0.00,   0.00,  999.0,   98.8, -999.0
30-03-2023, 00:43:40,    207,    1.5,    9.2,   0.00,   0.00,  999.0,   99.0, -999.0
30-03-2023, 00:43:49,    254,    1.7,    9.2,   0.00,   0.00,  999.0,   98.9, -999.0
30-03-2023, 00:44:00,    230,    0.7,    9.2,   0.00,   0.00,  999.0,   98.9, -999.0
30-03-2023, 00:44:10,    194,    0.0,    9.2,   0.00,   0.00,  998.9,   98.7, -999.0
30-03-2023, 00:44:20,    205,    0.6,    9.0,   0.00,   0.00,  999.0,   98.9, -999.0
30-03-2023, 00:44:29,    217,    1.3,    9.1,   0.00,   0.00,  999.0,   98.9, -999.0
30-03-2023, 00:44:40,    191,    2.7,    9.1,   0.00,   0.00,  999.1,   98.9, -999.0
30-03-2023, 00:44:50,    195,    2.3,    9.2,   0.00,   0.00,  999.0,   99.0, -999.0
30-03-2023, 00:44:59,    188,    2.1,    9.3,   0.00,   0.00,  999.0,   99.0, -999.0
30-03-2023, 00:45:09,    165,    2.2,    9.2,   0.00,   0.00,  999.0,   99.0, -999.0
30-03-2023, 00:45:20,    170,    1.1,    9.2,   0.00,   0.00,  999.0,   99.0, -999.0
30-03-2023, 00:45:30,    215,    0.9,    9.2,   0.00,   0.00,  999.0,   98.9, -999.0
30-03-2023, 00:45:39,    194,    2.8,    9.2,   0.00,   0.00,  999.0,   99.0, -999.0
30-03-2023, 00:45:50,    194,    0.8,    9.2,   0.00,   0.00,  999.0,   98.9, -999.0
30-03-2023, 00:46:00,    219,    2.2,    9.2,   0.00,   0.00,  999.0,   99.0, -999.0
30-03-2023, 00:46:09,    198,    2.1,    9.3,   0.00,   0.00,  999.1,   99.0, -999.0
30-03-2023, 00:46:19,    188,    3.1,    9.2,   0.00,   0.00,  999.0,   98.9, -999.0
30-03-2023, 00:46:30,    227,    2.4,    9.3,   0.00,   0.00,  999.1,   99.0, -999.0
30-03-2023, 00:46:39,    232,    2.9,    9.3,   0.00,   0.00,  999.1,   99.0, -999.0
30-03-2023, 00:46:49,    184,    0.9,    9.3,   0.00,   0.00,  999.0,   98.9, -999.0